Weather Roundup
Issued by NWS

Home | Current Version | Previous Version | Graphics & Text | Print | Product List | Glossary Off
Versions: 1 2 3 4 5 6 7 8 9 10 11 12 13 14 15 16 17 18 19 20 21 22 23 24 25 26 27 28 29 30 31 32 33 34 35 36 37 38 39 40 41 42 43 44 45 46 47 48 49 50

000
NZUS93 KARX 212059
HRRWXR

CURRENT HOURLY OBSERVATIONS ACROSS
MUCH OF THE UPPER MISSISSIPPI VALLEY
NATIONAL WEATHER SERVICE LA CROSSE WI
300 PM CST TUE FEB 21 2017


...SOUTHEAST MINNESOTA...


CITY           SKY/WX    TMP DP  RH WIND       PRES   REMARKS
ROCHESTER      MOSUNNY   56  47  71 S17       29.81F
ROCHESTER/MAYO FAIR      58  42  54 S15G24    29.80F
WINONA         MOSUNNY   59  37  44 S8        29.83F
AUSTIN         SUNNY     57  45  62 S14       29.81F
ALBERT LEA     SUNNY     59  45  58 S10G23    29.79F
DODGE CENTER   NOT AVBL
PRESTON        SUNNY     56  42  59 S15       29.84F
OWATONNA       SUNNY     61  43  51 S22G29    29.76F
FARIBAULT      MOSUNNY   61  43  51 S14G21    29.76S
$$

...ELSEWHERE IN MINNESOTA...


CITY           SKY/WX    TMP DP  RH WIND       PRES   REMARKS
MINNEAPOLIS    PTSUNNY   61  39  44 SW17G31   29.73F
INTNL FALLS    SUNNY     45  34  65 NE6       29.66F
DULUTH         MOSUNNY   48  35  60 S14       29.68F
RED WING       MOSUNNY   61  36  39 S7G17     29.76F
REDWOOD FALLS  SUNNY     63  43  48 SW18G26   29.70S
MANKATO          N/A     62  45  53 S17G28    29.74F
WORTHINGTON    SUNNY     63  46  54 SW18      29.74F
FAIRMONT       CLOUDY    63  46  54 SW20G25   29.75F
$$

...SOUTHWEST WISCONSIN...


CITY           SKY/WX    TMP DP  RH WIND       PRES   REMARKS
LA CROSSE      SUNNY     61  39  44 S13       29.84F
PRAIRIE DU CHI SUNNY     61  38  42 S3        29.89S
BOSCOBEL       SUNNY     65  33  30 W7        29.88F
LONE ROCK      NOT AVBL
PLATTEVILLE    SUNNY     60  40  47 SW8       29.90S
FORT MC COY    SUNNY     62  33  34 SW7       29.86F
MAUSTON-NEW LI CLEAR     62  34  34 S8        29.86F
VIROQUA        FAIR      59  35  41 S13       29.88S
WIS DELLS      SUNNY     62  31  31 SW8       29.87F
$$

...ELSEWHERE IN WISCONSIN...


CITY           SKY/WX    TMP DP  RH WIND       PRES   REMARKS
MILWAUKEE      MOSUNNY   65  38  36 SW8       29.89S
MADISON        MOSUNNY   60  39  45 SE3       29.88F
GREEN BAY      SUNNY     58  42  55 S7        29.86F
EAU CLAIRE     NOT AVBL
BLACK RVR FLS  FAIR      60  30  32 SW6       29.84F
MEDFORD        SUNNY     49  40  71 S7        29.83F
WAUSAU         SUNNY     53  35  50 S7        29.83F
WIS RAPIDS     SUNNY     59  37  44 S7        29.86F
MARSHFIELD     SUNNY     55  40  56 S9        29.83F
RICE LAKE      MOSUNNY   51  37  58 SE12      29.77F
$$

...NORTHEAST IOWA...


CITY           SKY/WX    TMP DP  RH WIND       PRES   REMARKS
WATERLOO       SUNNY     58  41  53 SW9       29.89S
DUBUQUE        SUNNY     60  41  49 SW5       29.90S
DECORAH        SUNNY     59  39  47 SW10      29.86F
MASON CITY     CLOUDY    57  46  66 S13       29.83F
CHARLES CITY   SUNNY     57  46  67 S14G21    29.86F
OELWEIN        MOSUNNY   59  46  63 S12       29.89F
$$

...ELSEWHERE IN IOWA...


CITY           SKY/WX    TMP DP  RH WIND       PRES   REMARKS
DES MOINES     MOSUNNY   68  33  27 W12       29.89F
IOWA CITY      SUNNY     66  40  38 S7        29.91F
FORT DODGE     SUNNY     63  45  51 S20       29.84F
MARSHALLTOWN   SUNNY     63  42  46 SW10      29.88F
CEDAR RAPIDS   SUNNY     63  42  46 W6        29.90S
$$

...NORTHERN ILLINOIS...


CITY           SKY/WX    TMP DP  RH WIND       PRES   REMARKS
CHICAGO-OHARE  CLOUDY    65  52  62 W7        29.89S
CHICAGO-MIDWAY CLOUDY    64  53  67 W8        29.90S
MOLINE         SUNNY     68  43  40 CALM      29.89F
ROCKFORD       MOSUNNY   65  41  41 VRB3      29.92S
PEORIA         CLOUDY    68  57  68 SW6       29.90F
$$

NOTE: "FAIR" INDICATES FEW OR NO CLOUDS BELOW 12,000 FEET WITH NO
SIGNIFICANT WEATHER AND/OR OBSTRUCTIONS TO VISIBILITY. WIND
SPEEDS ARE IN MILES-PER-HOUR.




USA.gov is the U.S. government's official web portal to all federal, state and local government web resources and services.